Location: Strawberry
(45.6646°N, 111.9596°W)
Time: 19:35:38
(UTC+00:00)

Vanguard 1 Rocket - Pass Details

Date: 11 October 2022
Orbit: 650 x 4225 km, 34.3° (Epoch: 01 December)

Event Time Altitude Azimuth Distance (km) Brightness Sun altitude
Rises 02:39:57 0° 252° (WSW) 8,462 13.4 -19.8°
Reaches altitude 10° 02:46:14 10° 249° (WSW) 7,316 12.8 -20.9°
Maximum altitude 03:08:58 57° 180° (S) 3,404 10.1 -24.8°
Enters shadow 03:16:07 35° 123° (ESE) 3,477 9.8 -25.9°
Drops below altitude 10° 03:21:54 10° 107° (ESE) 4,428 - -26.9°
Sets 03:24:39 0° 102° (ESE) 5,068 - -27.4°
